Location: Dammartin
(48.9032°N, 1.6195°E)
Time: 10:46:05
(UTC+00:00)

COSMOS 2428 - Pass Details

Date: 03 February 2023
Orbit: 843 x 858 km, 70.9° (Epoch: 29 March)

Event Time Altitude Azimuth Distance (km) Brightness Sun altitude
Rises 18:27:42 0° 159° (SSE) 3,391 5.7 -15.6°
Reaches altitude 10° 18:30:51 10° 141° (SE) 2,460 4.8 -16.1°
Enters shadow 18:32:24 15° 127° (SE) 2,128 4.4 -16.4°
